星链-5876 (STARLINK-5876 )

导读

STARLINK-5876是美国SpaceX公司星链(Starlink)项目的近地轨道通信卫星,于2023年4月27日发射升空。作为星链全球互联网组网的组成部分,它依托激光星间链路技术,搭配Ku、Ka等通信频段,可为全球偏远、网络覆盖盲区提供低时延高速宽带服务,助力星链完成全球无缝覆盖的组网目标。

基本信息
目录编号:
56321
目录名称:
STARLINK-5876
国际标识:
2023-058E
轨道中心:
EARTH
卫星名称:
星链-5876
卫星全名:
星链-5876 (STARLINK-5876 )
卫星状态:
在轨 (已飞行1226 天)
发射日期:
2023-04-27 UTC
国别 :
美国 (US)
星等 :
--
轨道信息
数据来源 国际轨道数据
星历时间: 2026-09-04T06:00:02+0800
10小时前
查看轨道信息
半长轴: 6843.787km
偏心率: 0.0001833
轨道倾角: 97.286°
近地点辐角 87.595°
升交点赤经 243.878°
平近点角 196.171°
近地点: 464.395km
远地点: 466.905km
周期: 93.908分钟
每日圈数: 15.334092
详细信息
固有亮度:
5
最大亮度:
2.5
卫星平台:
Starlink v1.5
覆盖范围:
全球
运营商:
太空探索技术公司
运营商所在国:
美国
制造商(研发单位):
太空探索技术公司
制造商所在国:
美国
使用方式:
暂无
卫星简介
星链(Starlink)计划是由太空探索技术公司(SpaceX)提出的一个巨型低轨卫星互联网星座项目,计划在2019年至2024年间在太空搭建由约1.2万颗卫星组成的“星链”网络,其中1584颗将部署在地球上空550千米处的近地轨道,并从2020年开始工作。该卫星仍在工作。
2D轨道图
3D轨道图
轨道高度分析图
轨道倾角分析图
轨道综合分析图
查看轨道综合分析图
交会数据列表
事件ID 空间交会对象 最接近时刻(TCA) 交会距离 交会风险概率(CRP) 交会风险指数(CRI) 操作
CDM_260901-044805-632106-818021
2026-09-01T
04:48:36+0000
0.840 km
远距离
3.697117E-5 中风险 0.66
CDM_260901-185305-235805-632121
2026-09-01T
18:53:32+0000
0.957 km
远距离
2.890431E-5 中风险 0.64
CDM_260905-125405-632105-726321
2026-09-05T
12:54:25+0000
1.602 km
极远距离
5.223823E-6 低风险 0.49
CDM_260901-171905-235805-632121
2026-09-01T
17:19:40+0000
1.628 km
极远距离
4.733951E-6 低风险 0.49
CDM_260905-125705-632106-658921
2026-09-05T
12:57:38+0000
1.689 km
极远距离
4.247645E-6 低风险 0.48
CDM_260905-151805-632106-658921
2026-09-05T
15:18:59+0000
1.774 km
极远距离
3.680768E-6 低风险 0.46
CDM_260901-053505-632106-818021
2026-09-01T
05:35:30+0000
1.924 km
极远距离
2.461025E-6 低风险 0.43
CDM_260905-053205-632105-669721
2026-09-05T
05:32:03+0000
2.186 km
极远距离
1.960896E-6 低风险 0.41
CDM_260905-033305-632105-763221
2026-09-05T
03:33:16+0000
2.368 km
极远距离
1.628985E-6 低风险 0.39
CDM_260827-183502-953805-632121
2026-08-27T
18:35:29+0000
2.634 km
极远距离
1.595427E-6 低风险 0.39